Regional Weather Roundup
Issued by NWS

Home | Current Version | Previous Version | Text Only | Print | Product List | Glossary On
Versions: 1 2 3 4 5 6 7 8 9 10 11 12 13 14 15 16 17 18 19 20 21 22 23 24 25 26 27 28 29 30 31 32 33 34 35 36 37 38 39 40 41 42 43 44 45 46 47 48 49 50
000
ASUS45 KSLC 140010
RWRUT

UTAH REGIONAL WEATHER ROUNDUP
NATIONAL WEATHER SERVICE SALT LAKE CITY UT
500 PM MST SAT FEB 13 2016

UTZ001>011-023>025-140100-

NORTHERN UTAH

CITY           SKY/WX    TMP DP  RH WIND       PRES   REMARKS
BRIGHAM CITY   CLOUDY    30  26  85 NW3       30.33S
HILL AFB       CLEAR     32  32 100 N7        30.29R FOG     WCI  26
LOGAN          CLEAR     33  26  75 CALM      30.30R
OGDEN          CLEAR     30  27  88 NW7       30.29R FOG     WCI  23
PROVO AIRPORT  FOG       25  21  86 CALM      30.29R VSB 1/2
SALT LAKE CITY CLEAR     35  29  78 N12       30.30R HAZE    WCI  27
VERNAL         CLEAR     35  23  61 CALM      30.17F HAZE
WENDOVER       SUNNY     36  28  75 SE5       30.29S WCI  32
HEBER CITY     CLEAR     37  25  60 SE3       30.21S
WEST JORDAN    CLEAR     37  30  75 NW5       30.28R WCI  34

$$

UTZ012>022-026-027-140100-

SOUTHERN/CENTRAL UTAH

CITY           SKY/WX    TMP DP  RH WIND       PRES   REMARKS
BLANDING       MOCLDY    46  28  51 CALM      30.25S
BRYCE CANYON   MOSUNNY   44  22  41 N10       30.26S
CEDAR CITY     MOSUNNY   43  28  55 W3        30.21S
DELTA          SUNNY     26  22  85 CALM      30.27F
HANKSVILLE     PTCLDY    52  32  46 CALM      30.20S
MILFORD        PTSUNNY   30  23  75 CALM      30.24F
MOAB/CYNLANDS  MOCLDY    47  36  65 N5        30.17S
PRICE          CLEAR     47  28  47 CALM      30.18F
ST GEORGE      CLEAR     64  28  25 SW3       30.13R

$$

REGIONAL REPORTS     COLORADO/ARIZONA

CITY           SKY/WX    TMP DP  RH WIND       PRES   REMARKS
CRAIG, CO      CLOUDY    27  20  75 W3        30.18R
GRAND JUNCTION CLOUDY    40  32  73 NW3       30.19S
RIFLE          CLOUDY    40  26  57 CALM      30.18F
MONTROSE       CLOUDY    47  27  45 CALM      30.20S
CORTEZ         CLOUDY    51  26  37 N5        30.17F
PAGE, AZ       PTSUNNY   57  31  37 N3        30.14R
GRAND CANYON   MOSUNNY   62   1   8 VRB6      30.23R
KINGMAN        MOSUNNY   71  20  14 N7        30.12R
FLAGSTAFF      SUNNY     58  11  15 W6        30.23R

$$

REGIONAL REPORTS    NEVADA/IDAHO/WYOMING

CITY           SKY/WX    TMP DP  RH WIND       PRES   REMARKS
LAS VEGAS, NV  MOSUNNY   75  21  13 NE3       30.06S
ELY            SUNNY     51  20  29 NW3       30.25F
ELKO           SUNNY     39  28  64 W7        30.27S WCI  34
POCATELLO, ID  PTCLDY    41  30  65 SW17      30.27S
BURLEY         LGT RAIN  44  31  60 W15G22    30.24S
EVANSTON, WY   CLEAR     36  25  64 SW17      30.24R WCI  26
ROCK SPRINGS   CLEAR     39  25  57 W23G31    30.16R WCI  28
KEMMERER       CLEAR     34  23  64 W25       30.20R WCI  21

$$



USA.gov is the U.S. government's official web portal to all federal, state and local government web resources and services.